Location: Cañada de la Miga
(34.7595°N, 106.2317°W)
Time: 03:38:04
(UTC+00:00)

Transit 4A - All Passes

Search period start: 30 November 2021 00:00
Search period end: 10 December 2021 00:00
Orbit: 866 x 978 km, 66.8° (Epoch: 29 November)

Date Brightness Start Highest point End Pass type
(mag) Time Alt. Az. Time Alt. Az. Time Alt. Az.
30 Nov - 02:12:24 10° S 02:17:44 39° ESE 02:23:10 10° NE visible
30 Nov - 03:59:06 10° WSW 04:04:06 29° NW 04:09:14 10° N visible
30 Nov - 11:18:21 10° N 11:23:33 26° NE 11:28:46 10° ESE visible
30 Nov - 13:04:04 10° NW 13:10:08 50° WSW 13:16:15 10° S visible
01 Dec - 02:21:10 10° SSW 02:26:53 62° ESE 02:32:45 10° NNE visible
01 Dec - 04:09:30 10° W 04:13:41 20° NW 04:17:57 10° N visible
01 Dec - 11:27:14 10° N 11:33:03 38° ENE 11:38:56 10° SE visible
01 Dec - 13:13:46 10° NW 13:19:16 33° WSW 13:24:51 10° S visible
02 Dec - 00:49:39 10° ESE 00:50:42 10° E 00:51:46 10° E visible
02 Dec - 02:30:17 10° SSW 02:36:06 86° WNW 02:42:07 10° NNE visible
02 Dec - 04:20:33 10° WNW 04:23:22 13° NW 04:26:13 10° NNW visible
02 Dec - 11:36:17 10° NNW 11:42:28 56° ENE 11:48:43 10° SE visible
02 Dec - 13:23:48 10° WNW 13:28:21 21° WSW 13:32:56 10° SSW visible
03 Dec - 00:55:51 10° SE 00:59:40 18° ESE 01:03:32 10° ENE visible
03 Dec - 02:39:43 10° SW 02:45:26 56° WNW 02:51:19 10° NNE visible
03 Dec - 10:01:16 10° NNE 10:04:32 14° NE 10:07:51 10° ENE visible
03 Dec - 11:45:28 10° NNW 11:51:49 83° ENE 11:58:12 10° SSE visible
03 Dec - 13:34:41 10° WNW 13:37:22 13° WSW 13:40:03 10° SW daylight
04 Dec - 01:03:47 10° SSE 01:08:42 29° ESE 01:13:43 10° NE visible
04 Dec - 02:49:28 10° WSW 02:54:50 37° WNW 03:00:22 10° N visible
04 Dec - 10:09:37 10° N 10:14:13 21° NE 10:18:52 10° E visible
04 Dec - 11:54:48 10° NNW 12:01:04 66° WSW 12:07:23 10° SSE visible
05 Dec - 01:12:19 10° S 01:17:49 46° ESE 01:23:28 10° NE visible
05 Dec - 02:59:35 10° WSW 03:04:21 25° NW 03:09:14 10° N visible
05 Dec - 10:18:21 10° N 10:23:48 30° NE 10:29:17 10° ESE visible
05 Dec - 12:04:20 10° NW 12:10:15 43° WSW 12:16:13 10° S visible
06 Dec - 01:21:12 10° SSW 01:27:00 72° ESE 01:32:57 10° NNE visible
06 Dec - 03:10:09 10° W 03:13:57 17° NW 03:17:50 10° N visible
06 Dec - 10:27:17 10° NNW 10:33:16 43° ENE 10:39:19 10° SE visible
06 Dec - 12:14:07 10° NW 12:19:23 28° WSW 12:24:40 10° SSW visible
06 Dec - 23:48:11 10° SE 23:50:43 13° ESE 23:53:17 10° ENE daylight
07 Dec - 01:30:26 10° SSW 01:36:15 74° WNW 01:42:16 10° NNE visible
07 Dec - 03:21:37 10° WNW 03:23:40 12° NW 03:25:46 10° NNW visible
07 Dec - 08:53:19 10° NNE 08:55:06 11° NE 08:56:55 10° ENE night (unlit)
07 Dec - 10:36:23 10° NNW 10:42:40 65° ENE 10:48:59 10° SE visible
07 Dec - 12:24:22 10° WNW 12:28:26 18° WSW 12:32:31 10° SW visible
07 Dec - 23:55:25 10° SSE 23:59:43 22° ESE 00:04:05 10° ENE daylight
08 Dec - 01:39:58 10° SW 01:45:36 48° WNW 01:51:25 10° NNE visible
08 Dec - 09:01:01 10° N 09:04:52 16° NE 09:08:44 10° E night (unlit)
08 Dec - 10:45:37 10° NNW 10:51:58 85° WSW 10:58:22 10° SSE visible
08 Dec - 12:36:15 10° W 12:37:25 11° W 12:38:35 10° WSW visible
09 Dec - 00:03:36 10° S 00:08:47 34° ESE 00:14:05 10° NE daylight
09 Dec - 01:49:51 10° WSW 01:55:03 32° NW 02:00:24 10° N visible
09 Dec - 09:09:32 10° N 09:14:30 24° NE 09:19:30 10° ESE night (unlit)
09 Dec - 10:55:01 10° NW 11:01:12 57° WSW 11:07:25 10° S visible
